TimeEDT,TemperatureF,Dew PointF,Humidity,Sea Level PressureIn,VisibilityMPH,Wind Direction,Wind SpeedMPH,Gust SpeedMPH,PrecipitationIn,Events,Conditions,WindDirDegrees,DateUTC
12:53 AM,32.0,28.9,88,30.12,10.0,Calm,Calm,-,N/A,,Clear,0,2013-10-28 04:53:00
1:53 AM,32.0,28.0,85,30.12,10.0,Calm,Calm,-,N/A,,Clear,0,2013-10-28 05:53:00
2:53 AM,28.0,26.1,92,30.13,10.0,Calm,Calm,-,N/A,,Clear,0,2013-10-28 06:53:00
3:53 AM,30.0,27.0,88,30.13,10.0,Calm,Calm,-,N/A,,Clear,0,2013-10-28 07:53:00
4:53 AM,28.0,25.0,88,30.14,10.0,Calm,Calm,-,N/A,,Clear,0,2013-10-28 08:53:00
5:53 AM,28.0,25.0,88,30.15,9.0,Calm,Calm,-,N/A,,Clear,0,2013-10-28 09:53:00
6:53 AM,27.0,24.1,89,30.17,10.0,Calm,Calm,-,N/A,,Clear,0,2013-10-28 10:53:00
7:53 AM,28.0,26.1,92,30.18,10.0,Calm,Calm,-,N/A,,Clear,0,2013-10-28 11:53:00
8:53 AM,36.0,30.9,82,30.21,10.0,Calm,Calm,-,N/A,,Clear,0,2013-10-28 12:53:00
9:53 AM,46.0,33.1,61,30.21,10.0,South,3.5,-,N/A,,Clear,170,2013-10-28 13:53:00
10:53 AM,53.1,28.9,40,30.20,10.0,SW,10.4,20.7,N/A,,Clear,230,2013-10-28 14:53:00
11:53 AM,57.0,30.0,36,30.19,10.0,West,11.5,17.3,N/A,,Clear,270,2013-10-28 15:53:00
12:53 PM,57.9,32.0,37,30.17,10.0,West,11.5,19.6,N/A,,Clear,280,2013-10-28 16:53:00
1:53 PM,60.1,30.9,33,30.15,10.0,WSW,9.2,16.1,N/A,,Clear,250,2013-10-28 17:53:00
2:53 PM,61.0,28.9,30,30.16,10.0,West,11.5,19.6,N/A,,Clear,280,2013-10-28 18:53:00
3:53 PM,60.1,30.0,32,30.17,10.0,NNW,9.2,-,N/A,,Clear,330,2013-10-28 19:53:00
4:53 PM,59.0,30.0,33,30.18,10.0,WNW,8.1,-,N/A,,Scattered Clouds,290,2013-10-28 20:53:00
5:53 PM,55.9,32.0,40,30.21,10.0,NNW,6.9,-,N/A,,Scattered Clouds,340,2013-10-28 21:53:00
6:53 PM,53.1,33.1,47,30.25,10.0,NW,3.5,-,N/A,,Overcast,320,2013-10-28 22:53:00
7:53 PM,50.0,34.0,54,30.28,10.0,Calm,Calm,-,N/A,,Mostly Cloudy,0,2013-10-28 23:53:00
8:53 PM,48.0,33.1,56,30.29,10.0,NW,4.6,-,N/A,,Partly Cloudy,310,2013-10-29 00:53:00
9:53 PM,48.0,30.0,50,30.31,10.0,NNW,5.8,-,N/A,,Clear,330,2013-10-29 01:53:00
10:53 PM,46.9,28.9,50,30.32,10.0,North,6.9,-,N/A,,Clear,360,2013-10-29 02:53:00
11:53 PM,44.1,28.9,55,30.34,10.0,North,5.8,-,N/A,,Clear,360,2013-10-29 03:53:00